| time (UTC) | temp C | wind direction | speed KPH | gust KPH | rain 1hr cm | rain 24hr cm | rain mn cm | humidity % | barometer mb |
| 20260502191513 | 10 | 223 | 1.6 | 11.3 | 0.00 | 0.10 | 0.10 | 78 | 1007.5 |
| 20260502190010 | 11 | 225 | 4.8 | 17.7 | 0.00 | 0.10 | 0.10 | 74 | 1007.6 |
| 20260502184505 | 12 | 205 | 8.0 | 20.9 | 0.00 | 0.10 | 0.10 | 68 | 1007.3 |
| 20260502183001 | 12 | 218 | 8.0 | 20.9 | 0.00 | 0.10 | 0.10 | 69 | 1007.3 |
| 20260502181610 | 12 | 198 | 4.8 | 24.1 | 0.00 | 0.10 | 0.10 | 68 | 1007.4 |
| 20260502163037 | 10 | 165 | 3.2 | 14.5 | 0.00 | 0.10 | 0.10 | 78 | 1008.1 |
| 20260502161535 | 10 | 165 | 6.4 | 12.9 | 0.00 | 0.10 | 0.10 | 82 | 1008.2 |
| 20260502151513 | 10 | 200 | 3.2 | 12.9 | 0.00 | 0.10 | 0.10 | 82 | 1008.9 |
| 20260502123032 | 7 | 276 | 0.0 | 1.6 | 0.05 | 0.10 | 0.10 | 89 | 1010.1 |
| 20260502121527 | 7 | 294 | 0.0 | 6.4 | 0.05 | 0.10 | 0.10 | 89 | 1009.8 |
| 20260502114518 | 7 | 284 | 3.2 | 9.7 | 0.00 | 0.05 | 0.05 | 89 | 1009.4 |
| 20260502113013 | 7 | 60 | 3.2 | 12.9 | 0.05 | 0.05 | 0.05 | 90 | 1009.0 |
| 20260502111509 | 7 | 280 | 0.0 | 6.4 | 0.05 | 0.05 | 0.05 | 90 | 1009.2 |
| 20260502110005 | 7 | 266 | 3.2 | 8.0 | 0.05 | 0.05 | 0.05 | 89 | 1009.3 |
| 20260502104501 | 7 | 158 | 0.0 | 3.2 | 0.05 | 0.05 | 0.05 | 88 | 1008.8 |
| 20260502103108 | 7 | 175 | 1.6 | 6.4 | 0.00 | 0.00 | 0.00 | 87 | 1008.5 |
| 20260502101634 | 8 | 202 | 3.2 | 8.0 | 0.00 | 0.00 | 0.00 | 86 | 1008.7 |
| 20260502100117 | 7 | 148 | 0.0 | 1.6 | 0.00 | 0.00 | 0.00 | 86 | 1008.2 |
| 20260502071510 | 9 | 146 | 0.0 | 9.7 | 0.00 | 0.00 | 0.00 | 73 | 1008.3 |
| 20260502070006 | 9 | 216 | 3.2 | 11.3 | 0.00 | 0.00 | 0.00 | 71 | 1008.6 |
| 20260502064502 | 9 | 240 | 1.6 | 3.2 | 0.00 | 0.00 | 0.00 | 70 | 1008.3 |
| 20260502063105 | 9 | 243 | 0.0 | 6.4 | 0.00 | 0.00 | 0.00 | 68 | 1008.4 |
| 20260502061559 | 9 | 201 | 4.8 | 9.7 | 0.00 | 0.00 | 0.00 | 68 | 1009.0 |
| 20260502060056 | 9 | 173 | 3.2 | 9.7 | 0.00 | 0.00 | 0.00 | 66 | 1008.8 |
| 20260502054550 | 9 | 150 | 1.6 | 9.7 | 0.00 | 0.00 | 0.00 | 65 | 1008.6 |
| 20260502053105 | 9 | 215 | 0.0 | 3.2 | 0.00 | 0.00 | 0.00 | 63 | 1008.5 |
| 20260502051542 | 9 | 233 | 0.0 | 4.8 | 0.00 | 0.00 | 0.00 | 61 | 1008.7 |
| 20260502050038 | 9 | 234 | 0.0 | 3.2 | 0.00 | 0.00 | 0.00 | 60 | 1008.8 |
| 20260502044534 | 9 | 153 | 0.0 | 3.2 | 0.00 | 0.00 | 0.00 | 61 | 1008.7 |
| 20260502043030 | 9 | 222 | 0.0 | 1.6 | 0.00 | 0.00 | 0.00 | 59 | 1008.7 |
| 20260502041529 | 10 | 229 | 0.0 | 1.6 | 0.00 | 0.00 | 0.00 | 58 | 1008.7 |
| 20260502040017 | 10 | 229 | 0.0 | 3.2 | 0.00 | 0.00 | 0.00 | 57 | 1009.0 |
| 20260502034509 | 10 | 210 | 0.0 | 3.2 | 0.00 | 0.00 | 0.00 | 57 | 1009.0 |
| 20260502033006 | 10 | 163 | 0.0 | 1.6 | 0.00 | 0.00 | 0.00 | 57 | 1009.0 |
| 20260502031502 | 9 | 221 | 0.0 | 4.8 | 0.00 | 0.00 | 0.00 | 58 | 1009.0 |
| 20260502030104 | 9 | 199 | 1.6 | 9.7 | 0.00 | 0.00 | 0.00 | 59 | 1009.0 |
| 20260502024558 | 9 | 213 | 6.4 | 16.1 | 0.00 | 0.00 | 0.00 | 60 | 1008.8 |
| 20260502023109 | 9 | 304 | 0.0 | 0.0 | 0.00 | 0.00 | 0.00 | 58 | 1008.6 |
| 20260502021551 | 9 | 304 | 0.0 | 0.0 | 0.00 | 0.00 | 0.00 | 57 | 1008.7 |
| 20260502020050 | 10 | 304 | 0.0 | 0.0 | 0.00 | 0.00 | 0.00 | 54 | 1008.7 |
| 20260502014545 | 10 | 305 | 0.0 | 0.0 | 0.00 | 0.00 | 0.00 | 56 | 1008.6 |
| 20260502013042 | 10 | 305 | 0.0 | 0.0 | 0.00 | 0.00 | 0.00 | 50 | 1008.6 |
| 20260502011542 | 11 | 305 | 0.0 | 1.6 | 0.00 | 0.00 | 0.00 | 45 | 1008.4 |
| 20260502010034 | 12 | 276 | 0.0 | 3.2 | 0.00 | 0.00 | 0.00 | 43 | 1008.2 |
| 20260502004530 | 12 | 271 | 0.0 | 3.2 | 0.00 | 0.00 | 0.00 | 40 | 1008.0 |
| 20260502003029 | 12 | 231 | 0.0 | 4.8 | 0.00 | 0.00 | 0.00 | 40 | 1007.9 |
| 20260502001523 | 13 | 225 | 1.6 | 4.8 | 0.00 | 0.00 | 0.00 | 39 | 1007.7 |
| 20260502000019 | 13 | 238 | 0.0 | 6.4 | 0.00 | 0.00 | 0.00 | 38 | 1007.4 |
| 20260501234514 | 13 | 275 | 1.6 | 8.0 | 0.00 | 0.00 | 0.00 | 37 | 1007.2 |
| 20260501233010 | 14 | 236 | 1.6 | 12.9 | 0.00 | 0.00 | 0.00 | 35 | 1007.1 |
| 20260501231509 | 15 | 266 | 1.6 | 6.4 | 0.00 | 0.00 | 0.00 | 34 | 1006.8 |
| 20260501230107 | 15 | 292 | 4.8 | 16.1 | 0.00 | 0.00 | 0.00 | 34 | 1006.6 |
| 20260501224600 | 15 | 271 | 1.6 | 14.5 | 0.00 | 0.00 | 0.00 | 34 | 1006.5 |
| 20260501223108 | 15 | 263 | 6.4 | 19.3 | 0.00 | 0.00 | 0.00 | 34 | 1006.6 |
| 20260501221547 | 16 | 297 | 8.0 | 16.1 | 0.00 | 0.00 | 0.00 | 33 | 1006.5 |
| 20260501220043 | 15 | 305 | 6.4 | 22.5 | 0.00 | 0.00 | 0.00 | 34 | 1006.3 |
| 20260501214539 | 15 | 239 | 1.6 | 14.5 | 0.00 | 0.00 | 0.00 | 34 | 1006.3 |
| 20260501213035 | 15 | 291 | 12.9 | 20.9 | 0.00 | 0.00 | 0.00 | 33 | 1006.3 |
| 20260501211528 | 15 | 293 | 6.4 | 24.1 | 0.00 | 0.00 | 0.00 | 34 | 1006.3 |
| 20260501210024 | 16 | 249 | 6.4 | 14.5 | 0.00 | 0.00 | 0.00 | 34 | 1006.2 |
| 20260501204520 | 15 | 271 | 14.5 | 33.8 | 0.00 | 0.00 | 0.00 | 34 | 1006.1 |
| 20260501203035 | 15 | 266 | 8.0 | 22.5 | 0.00 | 0.00 | 0.00 | 34 | 1006.0 |
| 20260501201513 | 15 | 309 | 11.3 | 29.0 | 0.00 | 0.00 | 0.00 | 32 | 1005.9 |
| 20260501200011 | 15 | 276 | 9.7 | 29.0 | 0.00 | 0.00 | 0.00 | 32 | 1005.9 |
| 20260501194507 | 15 | 315 | 3.2 | 25.7 | 0.00 | 0.00 | 0.00 | 33 | 1005.9 |
| 20260501193000 | 15 | 255 | 12.9 | 30.6 | 0.00 | 0.00 | 0.00 | 34 | 1006.1 |